Location: *
(53.4003°S, 165.3236°W)
Time: 02:36:27
(UTC+00:00)

Cosmos 2061 Rocket - Pass Details

Date: 11 December 2023
Orbit: 964 x 1013 km, 82.9° (Epoch: 24 February)

Event Time Altitude Azimuth Distance (km) Brightness Sun altitude
Rises 13:11:16 0° 194° (SSW) 3,696 7.8 -8.1°
Reaches altitude 10° 13:13:51 10° 198° (SSW) 2,743 7.0 -7.9°
Maximum altitude 13:19:51 49° 271° (W) 1,242 4.4 -7.4°
Drops below altitude 10° 13:25:49 10° 343° (NNW) 2,726 5.7 -6.9°
Enters shadow 13:26:49 - 346° (NNW) 3,091 6.0 -6.8°
